Temp
-5 -6 -5 -5 -5 -5 -5 -5 -5 -5 -5 -5 -5 -5 -5 -5 -6 -6 -6 -6 -6 -7 -7 -8 -8 -9 -9 -9 -9 -9 -9 -9 -10 -10 -10 -10 -11 -11 -10 -11 -11 -11
-6 -6 -6 -6 -6 -6 -6 -5 -6 -6 -6 -6 -6 -6 -6 -6 -6 -6 -6 -6 -7 -7 -7 -7 -8 -9 -9 -9 -9 -10 -10 -10 -10 -10 -10 -11 -11 -11 -11 -11 -11 -11
-7 -7 -7 -7 -7 -7 -6 -6 -6 -6 -6 -6 -6 -6 -6 -6 -6 -6 -6 -7 -7 -7 -7 -7 -8 -8 -9 -10 -10 -10 -10 -10 -10 -10 -11 -11 -11 -11 -11 -11 -11 -12
-8 -8 -8 -8 -8 -8 -8 -8 -7 -7 -7 -7 -7 -7 -7 -6 -6 -6 -6 -7 -7 -7 -7 -7 -7 -8 -9 -10 -10 -11 -11 -11 -11 -11 -11 -11 -12 -12 -12 -12 -12 -12
-9 -9 -9 -9 -9 -9 -9 -9 -9 -8 -8 -8 -8 -8 -8 -7 -7 -7 -7 -7 -7 -7 -7 -7 -8 -8 -9 -10 -11 -11 -11 -11 -11 -12 -12 -12 -12 -12 -12 -12 -12 -12
-10 -10 -10 -10 -10 -10 -10 -10 -10 -10 -9 -9 -9 -9 -9 -8 -8 -8 -7 -7 -7 -8 -8 -9 -9 -9 -10 -11 -11 -11 -11 -11 -12 -12 -12 -12 -12 -12 -13 -13 -13 -13
-11 -11 -11 -11 -11 -10 -10 -11 -11 -11 -11 -10 -10 -10 -10 -10 -9 -9 -8 -8 -9 -9 -9 -10 -10 -10 -11 -11 -11 -11 -11 -12 -12 -12 -13 -13 -13 -13 -13 -13 -13 -13
-12 -12 -12 -11 -11 -11 -11 -12 -12 -12 -12 -12 -11 -11 -11 -11 -11 -10 -10 -10 -10 -10 -10 -11 -11 -11 -11 -11 -12 -12 -12 -12 -12 -13 -13 -13 -13 -13 -13 -13 -13 -13
-13 -12 -12 -12 -12 -13 -13 -13 -13 -12 -13 -13 -12 -12 -12 -12 -12 -12 -12 -11 -11 -11 -11 -11 -11 -11 -11 -12 -12 -12 -12 -12 -12 -13 -13 -13 -13 -13 -13 -14 -14 -14
-13 -13 -13 -14 -14 -14 -14 -14 -14 -14 -14 -14 -14 -14 -13 -13 -13 -13 -13 -13 -13 -12 -12 -12 -12 -12 -12 -13 -13 -13 -12 -12 -12 -13 -13 -14 -14 -14 -14 -14 -14 -14
-14 -14 -15 -15 -15 -15 -15 -15 -15 -15 -15 -15 -15 -15 -15 -14 -14 -14 -14 -15 -14 -14 -14 -13 -13 -13 -13 -13 -14 -13 -13 -13 -13 -13 -14 -14 -14 -14 -14 -14 -14 -14
-15 -16 -16 -16 -16 -16 -16 -16 -16 -16 -16 -16 -16 -16 -15 -15 -15 -15 -15 -16 -16 -15 -15 -14 -14 -14 -14 -14 -14 -14 -14 -14 -13 -13 -14 -14 -14 -14 -14 -14 -14 -14
-16 -16 -16 -16 -17 -16 -16 -16 -17 -17 -17 -16 -16 -16 -16 -16 -16 -16 -16 -17 -17 -17 -17 -16 -15 -15 -14 -14 -14 -14 -14 -14 -14 -14 -14 -14 -15 -15 -15 -15 -15 -15
-17 -17 -17 -17 -17 -17 -17 -17 -17 -18 -18 -18 -17 -17 -17 -17 -17 -18 -17 -17 -18 -18 -18 -17 -17 -16 -15 -15 -15 -15 -15 -15 -15 -15 -15 -15 -15 -15 -15 -15 -15 -15
-18 -18 -18 -18 -18 -18 -18 -18 -19 -19 -19 -19 -19 -19 -19 -19 -19 -19 -19 -19 -18 -18 -19 -19 -18 -17 -16 -15 -15 -15 -15 -15 -15 -15 -15 -15 -15 -15 -15 -15 -15 -15
-18 -19 -19 -19 -18 -19 -19 -20 -20 -20 -20 -20 -20 -21 -21 -21 -21 -21 -21 -21 -20 -19 -20 -20 -19 -18 -17 -16 -15 -15 -15 -15 -15 -15 -15 -15 -16 -16 -16 -16 -16 -16
-19 -19 -19 -19 -19 -20 -20 -21 -21 -21 -21 -21 -22 -22 -22 -22 -23 -23 -23 -23 -23 -22 -21 -21 -20 -19 -18 -17 -16 -16 -15 -15 -15 -15 -15 -16 -16 -16 -16 -16 -16 -16
-20 -20 -20 -20 -20 -20 -21 -22 -22 -22 -23 -23 -23 -23 -23 -24 -25 -25 -25 -24 -24 -23 -22 -21 -20 -19 -18 -17 -17 -16 -15 -15 -15 -15 -15 -15 -16 -16 -16 -16 -16 -16
-21 -21 -20 -20 -21 -21 -22 -22 -23 -24 -24 -24 -24 -24 -25 -25 -25 -25 -25 -25 -24 -23 -22 -21 -21 -20 -18 -18 -17 -16 -15 -15 -15 -15 -15 -15 -16 -16 -16 -16 -16 -16
-21 -21 -21 -21 -21 -22 -22 -23 -24 -24 -25 -25 -25 -25 -26 -26 -26 -26 -25 -25 -24 -23 -23 -22 -21 -20 -19 -17 -17 -16 -15 -15 -14 -15 -15 -16 -16 -16 -16 -16 -16 -16
-22 -22 -22 -22 -22 -22 -23 -23 -24 -25 -25 -25 -26 -26 -26 -26 -26 -26 -25 -25 -24 -23 -23 -22 -21 -20 -19 -17 -17 -16 -16 -15 -15 -15 -15 -16 -16 -16 -16 -16 -16 -16
-23 -23 -23 -23 -23 -23 -24 -24 -25 -26 -26 -26 -26 -26 -27 -27 -26 -26 -25 -24 -24 -23 -22 -21 -20 -19 -18 -18 -17 -17 -16 -15 -15 -15 -15 -16 -16 -16 -16 -16 -16 -16
-23 -24 -24 -24 -24 -25 -25 -26 -26 -27 -27 -27 -27 -27 -27 -26 -26 -25 -25 -24 -23 -22 -22 -21 -20 -19 -19 -18 -18 -17 -16 -16 -16 -16 -16 -16 -16 -16 -16 -16 -16 -16
-23 -24 -24 -25 -25 -26 -26 -27 -27 -27 -27 -27 -27 -27 -27 -26 -26 -25 -25 -24 -23 -22 -22 -21 -21 -20 -20 -19 -18 -17 -16 -16 -16 -16 -16 -16 -16 -16 -16 -16 -16 -16
-23 -23 -24 -25 -26 -26 -26 -27 -28 -27 -27 -27 -27 -27 -27 -26 -26 -25 -25 -24 -23 -22 -21 -21 -21 -20 -20 -19 -18 -18 -17 -17 -17 -16 -16 -16 -16 -16 -16 -16 -16 -16
-23 -24 -25 -26 -26 -26 -27 -27 -28 -28 -28 -27 -27 -27 -27 -26 -26 -25 -24 -24 -23 -22 -21 -21 -21 -21 -20 -19 -19 -18 -17 -17 -17 -17 -17 -17 -17 -17 -16 -16 -16 -17
Height
1472 1469 1466 1463 1460 1458 1456 1453 1450 1447 1444 1442 1439 1436 1434 1433 1431 1429 1427 1425 1423 1422 1421 1420 1419 1418 1417 1417 1416 1415 1413 1412 1410 1410 1410 1408 1407 1407 1406 1405 1406 1406
1467 1464 1462 1459 1457 1454 1452 1450 1447 1444 1441 1438 1435 1433 1430 1428 1426 1424 1422 1420 1418 1417 1416 1415 1414 1413 1413 1412 1411 1410 1408 1406 1405 1405 1404 1403 1402 1402 1401 1400 1401 1401
1463 1461 1459 1456 1453 1451 1448 1445 1443 1440 1437 1434 1431 1429 1426 1423 1421 1419 1416 1414 1412 1411 1410 1409 1408 1407 1407 1406 1406 1404 1403 1401 1400 1400 1399 1398 1397 1397 1396 1396 1396 1395
1459 1458 1455 1453 1450 1447 1444 1441 1439 1436 1433 1430 1427 1424 1422 1419 1416 1413 1411 1409 1407 1405 1404 1402 1401 1400 1400 1399 1399 1398 1396 1395 1394 1395 1394 1392 1392 1391 1391 1391 1391 1390
1456 1454 1451 1449 1446 1443 1440 1437 1434 1432 1429 1426 1422 1420 1417 1414 1411 1409 1406 1403 1401 1398 1397 1395 1394 1393 1393 1393 1393 1391 1390 1389 1389 1389 1389 1387 1387 1386 1386 1386 1386 1385
1452 1449 1446 1444 1440 1438 1435 1432 1430 1427 1424 1421 1418 1415 1412 1409 1407 1404 1401 1398 1395 1393 1391 1390 1388 1387 1387 1387 1386 1385 1384 1383 1383 1384 1383 1381 1381 1381 1381 1381 1380 1380
1447 1444 1441 1438 1435 1432 1430 1427 1425 1423 1420 1416 1413 1410 1407 1405 1402 1400 1397 1395 1392 1389 1387 1385 1383 1382 1381 1380 1380 1379 1378 1378 1377 1378 1377 1375 1375 1375 1375 1376 1375 1375
1443 1440 1437 1434 1431 1428 1425 1423 1421 1418 1415 1412 1409 1406 1403 1401 1398 1396 1394 1391 1388 1385 1382 1380 1378 1377 1375 1374 1373 1372 1372 1371 1371 1372 1370 1369 1369 1369 1369 1371 1370 1370
1440 1436 1433 1430 1427 1424 1422 1420 1417 1413 1411 1408 1404 1402 1399 1397 1394 1392 1390 1387 1384 1381 1378 1376 1373 1371 1370 1368 1367 1366 1365 1365 1365 1365 1364 1363 1363 1363 1364 1365 1365 1364
1436 1432 1429 1426 1424 1421 1419 1416 1413 1409 1406 1403 1400 1396 1393 1390 1388 1386 1384 1382 1380 1377 1373 1371 1368 1366 1364 1363 1361 1360 1359 1358 1358 1358 1358 1357 1357 1357 1358 1359 1359 1359
1432 1429 1426 1424 1421 1418 1415 1411 1408 1404 1401 1397 1394 1390 1386 1383 1380 1378 1376 1374 1373 1371 1369 1366 1363 1361 1358 1356 1355 1354 1353 1351 1351 1351 1351 1350 1350 1350 1351 1352 1353 1353
1429 1427 1424 1421 1418 1414 1410 1406 1402 1398 1394 1390 1387 1383 1379 1375 1372 1369 1367 1365 1363 1362 1361 1359 1357 1355 1352 1350 1349 1348 1346 1344 1344 1344 1343 1343 1343 1343 1344 1345 1346 1347
1426 1424 1421 1417 1413 1409 1405 1401 1396 1392 1387 1383 1380 1376 1371 1367 1364 1360 1358 1355 1353 1352 1351 1350 1349 1347 1345 1343 1342 1341 1338 1337 1337 1337 1336 1336 1336 1336 1337 1339 1340 1341
1424 1421 1417 1413 1408 1404 1399 1395 1390 1386 1381 1377 1372 1368 1364 1360 1356 1352 1349 1346 1344 1342 1340 1340 1339 1338 1337 1336 1335 1333 1331 1330 1330 1330 1329 1329 1329 1329 1331 1332 1333 1335
1420 1416 1412 1407 1403 1398 1393 1389 1384 1380 1375 1370 1366 1361 1357 1353 1349 1345 1341 1337 1334 1332 1330 1330 1329 1328 1328 1328 1327 1325 1324 1323 1323 1323 1322 1322 1322 1322 1324 1325 1327 1328
1415 1411 1406 1401 1397 1392 1388 1383 1378 1373 1368 1363 1359 1354 1350 1346 1342 1338 1334 1331 1327 1323 1321 1321 1319 1319 1320 1320 1320 1319 1317 1316 1315 1314 1314 1315 1315 1316 1317 1319 1321 1322
1411 1405 1400 1395 1391 1387 1382 1378 1372 1367 1362 1357 1352 1348 1343 1339 1335 1331 1327 1324 1321 1317 1314 1313 1311 1311 1312 1312 1312 1312 1311 1309 1308 1307 1307 1307 1308 1309 1311 1313 1315 1317
1407 1401 1395 1391 1387 1382 1377 1372 1367 1362 1357 1352 1346 1342 1337 1333 1329 1325 1321 1318 1315 1312 1309 1307 1305 1305 1305 1304 1303 1303 1303 1302 1301 1300 1299 1300 1301 1303 1305 1307 1310 1312
1402 1396 1391 1386 1382 1377 1372 1367 1362 1357 1352 1347 1341 1336 1332 1327 1323 1320 1316 1313 1310 1307 1304 1301 1299 1299 1298 1297 1296 1295 1295 1295 1294 1293 1292 1293 1294 1297 1300 1302 1305 1307
1398 1392 1386 1381 1376 1371 1366 1361 1356 1351 1346 1341 1336 1331 1327 1322 1318 1315 1311 1309 1306 1302 1298 1295 1293 1293 1292 1291 1290 1289 1288 1289 1288 1287 1286 1286 1288 1291 1294 1297 1300 1302
1394 1388 1382 1376 1371 1366 1361 1355 1350 1345 1340 1335 1331 1326 1322 1318 1314 1310 1306 1303 1300 1297 1293 1290 1288 1287 1286 1285 1283 1282 1282 1282 1281 1280 1279 1280 1283 1286 1289 1292 1295 1297
1391 1384 1378 1372 1367 1362 1356 1351 1345 1340 1335 1331 1326 1321 1318 1314 1310 1306 1302 1297 1294 1292 1288 1284 1282 1282 1281 1280 1278 1276 1276 1276 1275 1275 1274 1275 1278 1281 1284 1287 1290 1293
1387 1381 1374 1368 1363 1357 1351 1346 1341 1335 1331 1327 1322 1317 1313 1309 1305 1301 1298 1294 1290 1287 1284 1280 1277 1277 1276 1274 1272 1271 1271 1270 1270 1270 1270 1271 1274 1277 1280 1283 1286 1288
1382 1376 1370 1364 1358 1352 1347 1342 1336 1331 1327 1324 1320 1314 1309 1305 1301 1297 1293 1290 1286 1283 1280 1276 1274 1273 1271 1269 1267 1266 1266 1266 1266 1266 1266 1268 1270 1273 1276 1279 1282 1285
1377 1372 1366 1360 1354 1348 1343 1338 1333 1328 1324 1320 1317 1312 1306 1302 1298 1293 1289 1286 1282 1279 1276 1274 1271 1268 1266 1264 1263 1262 1262 1263 1263 1263 1263 1265 1267 1270 1273 1276 1278 1280
1374 1368 1362 1357 1351 1345 1339 1335 1330 1325 1321 1316 1312 1308 1304 1299 1295 1290 1286 1282 1278 1275 1273 1271 1268 1264 1262 1261 1260 1259 1259 1260 1261 1261 1261 1262 1264 1267 1270 1272 1274 1276
Wind_Speed
36 36 36 37 39 40 41 42 42 43 44 45 45 46 46 45 44 43 43 42 41 41 39 35 33 35 39 41 42 44 45 45 45 44 42 42 43 43 44 45 45 44
39 37 36 36 37 38 39 40 41 43 44 46 47 47 47 47 46 44 43 43 42 41 41 39 34 32 35 39 41 44 46 46 46 45 43 43 44 44 45 45 45 45
37 36 35 35 36 38 39 40 41 42 44 45 46 46 47 47 47 46 44 43 43 43 42 42 39 36 35 35 38 42 45 47 48 46 45 45 45 45 45 45 45 45
35 34 34 35 36 37 38 39 40 40 42 43 44 44 45 46 47 47 45 44 45 47 47 46 45 43 38 34 34 38 43 46 48 46 45 45 45 45 46 45 45 45
33 34 35 35 36 35 36 37 39 40 41 42 42 42 43 45 46 47 48 49 51 52 50 48 45 41 37 33 33 35 39 43 46 46 45 46 45 45 45 45 45 45
35 36 36 36 36 37 39 39 38 38 39 39 40 40 40 41 45 48 50 51 50 47 45 43 40 37 34 31 31 34 36 40 45 45 45 46 46 45 45 45 45 46
36 36 36 38 41 43 42 38 35 35 36 38 38 38 38 37 40 43 45 45 44 43 43 41 38 35 33 30 29 32 34 38 43 45 45 46 46 45 45 45 45 46
37 38 41 44 44 41 36 32 33 35 38 39 39 38 36 34 35 37 39 42 43 43 42 39 37 36 35 31 29 31 33 36 41 45 46 47 46 46 46 45 46 46
41 43 44 42 38 33 31 31 36 40 43 44 44 43 41 38 37 37 37 39 41 42 41 40 41 41 39 34 32 32 33 35 39 44 47 47 47 47 46 45 46 47
43 43 40 36 33 32 32 36 41 44 47 48 49 49 49 48 47 44 41 39 40 41 42 43 43 42 39 35 33 33 34 36 39 42 47 48 48 48 47 46 46 47
41 39 36 34 33 35 39 43 46 49 50 51 52 53 54 54 53 52 50 47 44 42 42 41 41 39 37 36 35 34 36 39 40 41 46 48 49 49 48 47 47 47
39 35 33 34 38 42 47 50 51 52 53 52 52 52 53 54 53 53 53 52 50 48 45 43 42 41 40 39 39 38 39 41 41 41 44 47 49 49 48 47 47 48
36 33 34 40 45 49 51 52 52 53 54 53 52 51 51 51 51 51 51 50 50 49 49 48 47 47 46 44 43 42 42 42 41 40 43 46 48 48 48 47 47 48
33 36 42 48 51 52 53 53 54 54 54 54 53 51 50 49 49 49 50 50 49 48 48 47 47 49 49 48 47 44 42 42 41 41 42 45 48 48 47 47 47 47
37 46 51 53 52 53 53 54 55 55 54 53 52 51 51 50 50 49 49 49 49 48 46 44 44 46 47 48 48 46 44 43 43 43 44 45 47 47 47 46 46 46
48 56 56 54 53 53 54 55 56 55 55 54 53 52 52 52 51 50 48 47 47 47 44 42 42 43 43 44 44 43 43 44 45 45 44 45 46 46 46 45 45 45
55 59 58 55 54 54 55 56 56 56 55 55 55 54 54 53 52 51 48 47 45 44 42 41 41 41 40 40 41 42 44 45 46 46 45 44 45 46 45 44 44 43
57 59 58 56 56 56 56 57 56 56 56 56 56 56 55 53 52 50 47 44 42 41 40 40 40 39 37 38 40 42 44 44 45 45 45 45 45 45 44 43 42 42
58 59 58 57 57 57 57 57 57 57 57 56 57 56 54 52 50 47 45 43 41 41 40 39 39 38 37 37 38 37 38 39 40 42 44 44 44 44 43 42 42 41
58 58 58 58 57 58 58 58 58 58 58 57 56 54 52 50 49 46 45 44 42 40 39 39 38 38 37 36 35 34 33 34 36 39 41 42 43 43 42 42 41 41
57 57 58 58 58 58 59 59 59 59 58 56 53 51 50 49 48 48 46 45 42 40 39 39 36 35 35 35 34 33 32 32 33 36 38 39 41 42 41 40 40 40
56 57 57 57 58 59 59 59 59 58 56 53 51 50 50 48 48 48 46 45 43 40 40 40 36 33 33 34 34 32 31 30 31 33 35 35 37 39 40 39 39 39
56 56 57 57 58 58 59 59 58 55 53 50 50 50 50 49 48 47 46 45 43 40 39 40 38 35 34 34 34 30 27 27 29 30 31 31 32 35 37 38 38 37
56 56 56 57 58 58 58 57 54 52 51 49 49 50 50 49 48 47 46 44 43 42 39 37 38 38 35 33 31 26 23 24 26 28 29 28 28 29 31 33 35 35
55 56 56 56 57 56 55 53 52 51 50 49 49 49 49 49 47 46 46 43 41 40 36 34 38 38 32 27 26 24 21 21 23 25 26 26 25 26 26 28 31 33
55 56 55 55 55 54 52 50 50 50 50 50 49 48 48 47 46 45 45 43 40 38 34 34 37 34 27 24 24 23 21 20 20 22 24 25 24 24 25 28 31 33
Wind_Direction
318 318 317 316 316 315 314 312 312 311 310 309 309 309 308 307 303 300 298 297 296 296 297 298 297 294 292 291 288 285 284 282 280 279 279 278 274 270 267 265 261 259
318 319 318 316 316 316 316 314 312 310 309 308 308 307 307 305 302 298 295 293 292 292 294 295 296 296 293 291 289 286 283 280 278 276 276 276 273 268 267 265 261 258
323 324 323 320 318 316 315 313 311 310 309 309 308 308 306 304 301 297 292 289 289 290 292 292 292 295 293 289 289 287 283 279 276 274 273 274 271 265 265 264 260 258
329 326 322 320 317 315 314 312 311 311 310 310 310 309 306 304 301 296 290 288 289 291 292 290 289 290 290 287 287 287 284 278 274 271 269 270 269 263 262 261 258 257
326 321 319 319 316 315 313 312 311 310 311 311 313 313 311 307 302 296 292 290 290 289 288 285 284 284 285 285 286 288 285 277 270 267 265 266 266 262 260 258 256 256
323 322 321 320 317 315 313 312 314 314 313 313 313 314 314 311 305 297 292 289 286 283 281 280 280 279 280 284 287 287 285 277 269 265 264 264 264 261 259 256 255 254
329 327 323 319 317 316 316 319 321 319 316 315 315 315 316 317 311 299 289 286 283 281 281 280 277 275 277 283 285 284 284 278 270 266 264 263 262 260 258 256 254 253
330 324 319 318 319 322 327 328 320 316 316 316 315 315 315 319 322 311 298 291 288 286 284 280 275 275 279 282 282 282 284 280 272 266 263 262 260 259 257 255 253 252
323 320 321 323 328 332 331 321 312 312 315 314 312 310 308 310 315 317 311 303 295 290 286 282 279 279 279 279 279 281 285 285 277 268 263 261 259 258 256 254 252 252
324 326 329 333 335 331 321 314 312 314 314 313 311 309 306 304 303 304 306 305 302 296 289 283 280 279 279 279 278 279 283 288 285 272 263 260 259 257 256 253 251 251
330 332 335 334 329 322 316 314 314 313 312 310 309 307 304 302 300 298 297 296 296 296 292 286 280 278 279 279 278 279 283 289 289 277 265 261 258 256 255 253 251 250
334 336 333 326 320 317 315 314 314 314 314 312 311 309 306 303 300 298 296 293 291 289 288 285 283 281 279 277 277 278 282 285 286 279 268 261 258 256 254 252 250 250
337 333 324 319 317 316 316 317 318 318 318 317 316 314 310 306 303 300 297 294 292 288 284 281 281 280 278 276 275 276 279 281 280 276 269 262 258 255 253 251 250 249
331 322 319 319 319 320 321 322 321 320 320 319 318 316 314 311 308 304 299 295 292 290 286 282 280 277 275 274 273 274 276 276 275 273 269 263 257 254 252 250 249 248
323 322 324 325 325 325 324 323 322 321 321 320 319 319 317 314 311 307 303 299 295 291 288 285 281 278 275 273 272 272 273 273 273 272 269 263 256 252 250 249 248 247
322 327 329 329 328 326 324 323 323 323 323 323 322 320 318 316 314 311 308 305 301 296 293 289 284 280 276 272 269 269 270 271 272 270 267 261 255 250 248 247 246 245
324 329 330 330 329 327 325 324 324 324 324 324 323 321 320 318 317 314 311 308 305 301 298 294 290 286 280 274 269 267 267 268 269 267 263 259 252 248 246 245 244 244
326 329 329 329 328 327 326 326 325 325 325 324 323 322 321 319 317 315 313 311 309 306 301 296 292 289 285 279 274 268 266 266 267 265 261 255 250 246 244 243 242 242
328 329 330 329 329 328 327 327 326 325 325 324 323 322 321 319 318 317 315 313 310 306 301 298 295 292 289 285 279 270 265 264 265 264 259 252 246 243 242 241 240 240
329 330 330 330 330 330 328 328 327 326 325 324 323 323 322 321 320 317 314 313 310 306 301 298 296 295 292 287 281 275 270 265 263 263 259 251 244 241 240 240 239 239
330 330 330 330 331 330 329 328 327 326 325 325 324 324 323 321 319 317 315 314 312 309 304 301 300 299 295 289 283 278 273 266 260 259 258 250 243 240 240 240 240 240
330 330 330 331 331 330 329 328 327 326 326 326 326 325 323 322 320 318 317 315 313 311 307 306 309 307 298 291 286 278 269 265 260 257 255 249 241 239 239 239 239 240
332 331 331 331 330 329 328 328 327 327 328 329 328 326 324 323 321 319 318 316 315 314 311 309 311 309 299 291 287 278 267 264 262 258 254 248 241 238 237 238 239 240
334 333 332 331 330 329 328 328 329 329 330 330 328 325 324 323 322 320 319 318 316 315 313 309 307 305 300 292 287 278 266 264 263 259 254 247 239 235 235 237 240 242
336 335 333 332 331 330 330 330 330 330 331 330 328 326 324 323 322 320 319 319 318 317 315 311 308 306 302 294 288 280 269 267 267 261 252 244 235 230 231 236 239 242
337 336 334 332 331 331 331 331 331 331 331 330 328 326 325 324 323 322 320 320 321 320 316 313 311 309 305 297 291 286 276 270 270 262 249 240 235 230 230 236 240 240